Flag for Bosnia-Herzegovina Weather past 2 weeks in Mostar, Bosnia-Herzegovina

Now
86 °F

Passing clouds.


Feels Like: 83 °F
Forecast: 58 / 94 °F
Wind: 12 mph from North

Location: Mostar

Current Time: Jul 1, 2015 at 7:38:08 PM

Latest Report: Jul 1, 2015 at 7:00 PM


Visibility: N/A

Pressure: 30.04 "Hg

Humidity: 27%

Dew point: 48 °F

Location of MostarLocation

Historic Weather in Mostar — Graph

°F

Mostar temperature yesterday

Maximum temperature yesterday: 88 °F (at 4:30 PM)
Minimum temperature yesterday: 68 °F (at 6:00 AM)
Average temperature yesterday: 80 °F

Past Weeks' High & Low Weather Summary

 TemperatureHumidityPressure
High90 °F (Jul 1, 3:00 PM)94% (Jun 17, 6:30 AM)30.12 "Hg (Jun 17, 6:30 AM)
Low52 °F (Jun 22, 5:30 AM)22% (Jun 22, 5:00 PM)29.74 "Hg (Jun 19, 2:00 PM)
Average73 °F48%29.93 "Hg
* Reported Jun 16 6:00 PM — Jul 1 6:00 PM, Mostar, Weather by CustomWeather, © 2015

Note: Actual official high and low records may vary slightly from our data, if they occured in-between our weather recording intervals... More about our weather records

Advertising

Mostar weather history for previous 24 hours

 ConditionsComfort  
Time TempWeatherWind HumidityBarometerVisibility
6:00 PM
Wed, Jul 1
88 °FPassing clouds.10 mph25%30.04 "HgN/A
5:00 PM88 °FPassing clouds.16 mph27%30.04 "HgN/A
4:00 PM88 °FPassing clouds.10 mph27%30.04 "HgN/A
3:00 PM90 °FPassing clouds.7 mph26%30.04 "HgN/A
2:00 PM88 °FPassing clouds.7 mph25%30.07 "HgN/A
1:00 PM88 °FPassing clouds.9 mph25%30.07 "HgN/A
12:00 PM86 °FPassing clouds.9 mph25%30.09 "HgN/A
11:30 AM86 °FPassing clouds.15 mph25%30.09 "HgN/A
11:00 AM82 °FPassing clouds.3 mph30%30.09 "HgN/A
10:30 AM81 °FPassing clouds.6 mph34%30.09 "HgN/A
10:00 AM81 °FPassing clouds.3 mph34%30.09 "HgN/A
9:30 AM77 °FPassing clouds.2 mph39%30.09 "HgN/A
9:00 AM75 °FPassing clouds.2 mph41%30.09 "HgN/A
8:30 AM73 °FPassing clouds.3 mph44%30.09 "HgN/A
8:00 AM72 °FPassing clouds.3 mph50%30.09 "HgN/A
7:30 AM68 °FSunny.2 mph53%30.09 "Hg10 mi
7:00 AM66 °FPassing clouds.3 mph56%30.09 "HgN/A
6:30 AM63 °FPassing clouds.5 mph64%30.09 "HgN/A
6:00 AM59 °FClear.2 mph72%30.07 "Hg10 mi
5:30 AM59 °FClear.2 mph68%30.07 "Hg10 mi
5:00 AM59 °FClear.2 mph72%30.07 "Hg10 mi
4:30 AM59 °FPassing clouds.2 mph68%30.07 "HgN/A
4:00 AM64 °FClear.1 mph60%30.07 "Hg10 mi
3:00 AM64 °FClear.1 mph56%30.07 "Hg10 mi
2:30 AM64 °FClear.2 mph60%30.07 "Hg10 mi
2:00 AM66 °FClear.2 mph52%30.07 "Hg10 mi
1:00 AM68 °FClear.5 mph49%30.07 "Hg10 mi
12:00 AM75 °FClear.2 mph39%30.07 "Hg10 mi
11:00 PM
Tue, Jun 30
77 °FPassing clouds.6 mph36%30.07 "HgN/A
10:30 PM77 °FPassing clouds.17 mph36%30.07 "HgN/A
10:00 PM79 °FPassing clouds.20 mph34%30.04 "HgN/A
9:30 PM79 °FPassing clouds.20 mph34%30.04 "HgN/A
9:00 PM79 °FPassing clouds.18 mph34%30.04 "HgN/A
8:30 PM81 °FPassing clouds.17 mph30%30.01 "HgN/A
8:00 PM81 °FPassing clouds.15 mph32%30.01 "HgN/A
7:00 PM84 °FPassing clouds.14 mph25%30.01 "HgN/A
Weather by CustomWeather, © 2015

See weather overviewHow to use our weather pages